カタログに戻る

KUIPER-00157

運用中通信LEO
NORAD 65970·PAYLOAD·🇺🇸 United States

打ち上げ Oct 14, 2025 から Cape Canaveral Space Force Station

Loading…

次のパス (今後24時間)

TLE

最新Source: CelesTrak SupGP

元期: Sep 14, 2026, 20:32 UTC

1 65970C 25228Z   26257.85560185  .00003197  00000+0  45247-3 0  2577
2 65970  51.9006 221.2011 0001727 122.8472  88.7130 14.76627532    13

AllMySatでKUIPER-00157をリアルタイム追跡

Download on the App Store